Lapse_Rate
4.8 4.7 5.0 4.4 4.0 3.7 3.5 3.8 4.1 4.1 4.1 4.0 3.9 4.0 3.9 3.9 3.9 4.1 4.4 4.7 5.0 5.4 5.7 5.8 6.0 6.2 6.5 6.1 5.6 5.5 5.5 5.6 6.3 6.1 6.1 6.3 6.3 6.1 5.7 5.8 5.9 6.0 6.5
5.1 4.6 4.9 4.5 4.1 4.0 3.9 4.1 4.3 4.3 4.2 4.2 4.0 4.0 3.8 4.0 4.1 4.2 4.4 4.8 5.2 5.6 5.9 6.3 6.5 6.6 6.2 5.4 5.0 5.1 5.1 5.4 5.6 5.6 5.7 6.0 6.2 6.2 6.1 5.9 5.9 6.2 6.5
5.0 5.0 4.7 4.6 4.3 4.2 4.3 4.5 4.5 4.4 4.4 4.3 4.2 3.9 4.0 3.9 4.2 4.2 4.5 4.7 5.2 5.8 6.1 6.4 6.4 6.3 5.7 5.1 5.1 5.3 5.3 5.5 5.6 5.5 5.4 5.2 5.7 6.1 5.9 5.9 6.1 6.1 6.3
5.7 5.3 5.0 4.7 4.3 4.1 4.0 4.8 4.7 4.7 4.5 4.4 4.2 4.0 4.0 3.9 4.2 4.2 4.3 4.7 5.3 5.9 6.2 6.1 6.2 6.1 5.7 5.2 5.4 5.9 5.8 5.7 5.5 5.4 5.2 5.5 6.0 6.3 6.2 5.9 5.9 5.9 5.8
5.7 5.5 5.3 4.9 4.7 4.8 4.5 4.8 4.9 4.6 4.1 4.2 4.2 4.2 4.1 4.1 4.5 4.3 4.4 4.9 5.4 5.9 6.1 6.2 6.4 6.1 5.5 5.1 5.0 5.6 5.4 5.7 5.6 5.3 5.3 5.8 6.2 6.7 6.3 6.0 5.8 5.8 5.8
5.0 5.6 5.0 4.9 4.7 4.8 4.8 4.8 4.4 3.9 4.0 4.2 4.1 4.2 4.4 4.3 4.4 4.3 4.4 5.1 5.4 5.8 5.9 6.0 5.7 5.6 5.3 5.5 4.8 4.9 5.6 4.7 4.6 4.8 5.1 5.9 6.7 7.0 6.7 6.1 6.1 6.2 6.1
5.0 5.1 5.1 4.9 4.9 5.1 4.9 4.3 3.9 3.6 3.9 3.7 3.9 4.2 4.2 4.2 4.5 4.3 4.4 4.7 5.1 5.3 5.5 5.6 5.7 5.8 5.6 5.7 6.2 4.7 5.6 5.4 5.0 4.8 5.0 5.5 6.9 7.4 6.9 6.4 6.0 6.0 6.5
4.2 5.2 6.3 5.6 5.7 5.1 4.3 3.8 3.3 3.5 3.8 3.8 4.0 4.0 4.0 4.0 4.0 4.1 4.4 4.7 5.0 5.2 5.4 5.6 6.1 6.3 6.5 6.1 6.3 5.9 5.6 5.6 5.1 5.0 5.4 5.8 6.9 7.1 6.8 6.5 6.1 5.9 6.0
4.3 4.6 5.3 5.6 5.8 4.4 4.2 3.4 3.4 3.8 3.8 3.7 3.7 3.8 3.8 3.9 4.3 4.6 4.8 5.1 5.2 5.4 5.6 5.9 6.0 6.5 6.1 6.4 6.8 6.5 6.1 6.0 5.2 5.1 5.6 5.8 7.0 7.2 6.8 6.4 6.2 6.0 6.2
4.2 3.8 3.6 4.7 5.7 5.1 4.8 4.2 3.6 3.4 3.7 3.8 3.9 4.1 4.6 4.7 5.0 5.2 5.3 5.5 5.7 6.0 5.7 5.8 6.0 6.6 7.0 6.7 6.8 6.4 5.9 5.4 5.0 5.0 5.3 6.4 7.4 7.3 6.9 6.5 6.2 6.2 6.2
3.7 4.6 4.7 4.6 5.2 4.2 4.5 4.3 4.2 4.2 4.2 4.2 4.4 4.7 4.8 4.7 4.9 5.0 5.5 5.9 5.7 5.8 5.9 6.1 6.1 6.3 6.6 6.4 5.2 5.1 5.3 5.1 5.5 5.4 5.7 7.3 7.8 7.5 6.9 6.7 6.6 6.4 6.4
5.4 4.8 5.0 5.2 5.2 4.9 4.8 4.0 4.0 4.2 4.1 4.3 4.7 4.8 4.8 4.9 5.0 5.2 5.8 5.6 5.7 6.0 6.1 6.1 6.2 6.2 5.8 5.2 5.2 5.4 4.6 4.6 4.9 5.1 5.8 7.5 8.0 8.3 7.7 7.1 6.8 6.7 6.6
3.7 4.1 4.7 4.9 4.1 3.8 4.2 3.2 3.4 3.7 4.2 4.7 4.7 4.9 5.0 4.6 4.7 4.9 4.6 4.7 5.2 5.5 5.1 5.3 5.2 5.0 5.0 4.9 4.7 4.7 4.7 4.8 4.7 5.0 6.0 7.1 8.4 8.4 8.1 7.7 7.1 7.0 6.7
3.6 4.1 4.2 4.0 4.1 4.2 3.9 3.3 3.4 4.1 4.6 4.3 5.0 5.0 4.0 3.0 3.2 3.4 3.4 3.7 4.4 4.5 4.1 4.2 4.1 4.2 4.2 4.5 4.7 4.7 4.5 4.5 4.7 4.6 5.5 6.4 7.3 8.8 8.8 8.1 7.6 7.4 7.2
4.2 4.5 4.3 4.3 4.0 3.9 3.6 3.7 4.1 4.0 4.0 3.7 4.1 4.3 4.2 3.0 2.3 3.0 3.1 3.4 3.8 4.1 3.9 3.4 3.4 3.3 3.4 3.9 4.1 4.2 4.1 3.9 4.3 4.6 5.3 6.3 6.8 7.4 8.6 8.5 8.2 8.3 7.9
4.7 4.3 4.5 4.5 4.1 4.2 3.8 3.8 3.3 3.6 3.5 3.7 3.9 4.2 4.0 3.5 2.9 2.6 2.6 2.6 2.8 3.4 3.3 3.1 2.7 2.3 2.2 3.7 3.6 3.8 3.7 3.7 4.3 4.6 5.0 6.0 6.5 7.4 8.2 8.8 9.0 9.1 9.4
4.2 4.7 4.5 4.1 4.2 3.8 2.9 3.3 3.2 2.9 3.3 3.2 3.4 3.8 4.0 3.8 3.3 2.5 2.1 1.7 2.3 3.0 3.0 2.9 2.6 2.9 2.5 3.6 2.8 3.5 3.3 3.9 4.6 4.5 4.1 4.6 4.9 6.3 7.7 9.0 8.8 8.8 8.9
4.7 4.8 4.1 5.4 3.7 2.4 2.6 2.5 2.4 3.0 3.0 2.8 2.8 3.1 3.3 3.3 3.2 2.7 1.8 1.4 2.2 2.5 2.7 2.0 2.1 1.9 1.8 2.0 2.0 1.5 2.6 4.3 5.0 4.9 4.7 4.4 5.0 5.1 7.1 8.2 8.7 8.6 8.7
4.6 4.5 4.0 3.8 3.0 2.3 2.1 2.2 2.6 3.0 2.6 2.5 2.6 2.9 3.2 3.1 3.1 2.7 1.4 1.2 2.4 2.0 1.7 2.7 1.4 1.8 1.6 1.7 3.5 2.3 2.5 3.0 3.5 4.8 4.6 4.6 4.9 5.4 6.9 7.6 8.1 8.4 8.7
3.3 3.5 3.4 3.2 2.1 2.0 1.8 1.8 1.7 1.6 1.7 2.4 2.7 2.9 3.2 3.0 2.8 2.0 1.5 1.8 2.1 1.1 0.8 1.3 1.3 0.5 0.5 1.1 4.2 3.7 2.3 3.0 3.7 3.2 3.6 5.0 5.2 5.5 6.0 6.6 6.7 6.7 7.7
2.9 2.4 2.7 2.1 1.8 2.3 2.1 2.2 1.5 1.2 0.9 0.8 2.3 3.0 2.7 2.8 2.7 2.5 1.7 1.5 1.8 0.5 0.1 0.6 0.1 0.8 0.7 0.4 2.1 3.1 2.2 2.8 3.1 2.5 4.1 3.8 4.6 5.4 6.2 6.2 6.2 6.6 7.1
2.6 2.8 2.6 2.7 2.0 3.1 3.2 1.7 1.6 1.3 1.0 0.8 1.5 2.3 3.2 3.3 3.2 2.5 1.3 0.4 0.5 -0.4 -0.2 -0.3 0.1 0.9 0.8 0.7 2.8 2.4 3.8 3.8 3.3 3.4 3.0 3.5 3.4 4.7 5.3 6.0 6.4 6.7 6.8
2.1 1.9 2.3 1.9 2.1 3.0 2.6 1.6 0.6 0.6 1.0 0.8 0.9 0.9 2.7 3.3 2.6 1.8 1.3 0.7 0.2 -0.1 -0.4 -0.0 0.8 2.1 2.7 2.0 2.5 4.1 4.0 4.0 2.9 3.2 4.0 3.5 3.4 3.5 4.7 5.6 6.2 6.5 6.9
1.8 1.7 2.1 2.3 2.0 2.3 2.1 2.7 2.5 2.5 3.2 1.0 0.6 0.5 1.2 2.3 2.0 1.8 1.3 0.9 0.4 0.3 0.1 0.6 1.7 1.5 2.0 3.5 3.4 4.5 4.0 4.1 4.4 4.4 3.7 3.6 3.5 5.3 4.3 4.8 5.4 6.2 6.6
1.5 1.3 2.1 2.0 2.4 2.8 2.8 2.0 1.6 2.3 1.0 -0.1 0.0 0.3 0.2 0.5 1.2 1.1 1.4 1.5 1.0 0.7 1.0 0.9 1.0 1.7 2.6 3.6 4.1 4.2 3.8 3.0 3.1 3.9 4.2 4.2 4.1 4.1 4.4 4.9 5.2 5.4 6.2
1.7 1.4 1.5 1.5 1.8 2.6 3.1 1.9 2.6 1.7 0.3 0.7 0.2 0.4 -0.2 -0.5 -0.3 1.1 1.7 2.2 2.2 2.4 1.4 1.9 2.2 3.0 3.4 3.5 3.3 3.5 4.3 4.9 4.8 4.1 3.5 3.5 3.8 4.4 4.3 5.0 5.2 5.8 5.8
Wind_Speed
13 17 23 23 25 24 23 23 24 25 26 26 26 26 26 26 25 24 23 22 23 23 23 23 22 19 18 16 13 11 12 12 16 17 18 19 19 19 19 20 19 17 19
15 21 25 25 26 25 24 24 23 24 24 25 25 25 25 24 22 23 23 23 23 24 23 23 22 20 20 17 14 12 13 12 15 18 17 17 19 19 20 20 20 19 20
16 21 23 27 28 26 25 23 24 24 24 24 24 24 23 25 22 23 23 22 23 22 23 24 23 23 24 24 25 21 18 15 15 14 13 14 17 19 20 20 20 19 19
16 20 22 27 28 27 28 25 25 24 24 23 22 23 22 24 23 22 22 22 22 21 22 23 24 24 26 25 22 22 21 19 15 15 14 14 14 18 19 19 20 20 19
13 19 21 26 27 26 28 26 24 23 22 21 20 22 22 23 22 22 21 21 20 20 20 20 22 24 22 22 20 17 18 18 16 14 14 13 14 17 19 19 19 19 20
8 17 25 27 27 27 27 26 24 23 21 20 20 20 21 23 21 20 21 20 20 18 17 16 17 20 21 22 19 16 17 16 16 15 15 13 13 15 17 17 18 18 19
7 16 21 28 27 27 27 25 24 22 20 20 20 20 19 20 20 18 19 18 17 16 14 12 16 18 22 22 22 19 18 16 16 14 13 13 12 14 15 16 16 17 17
2 9 17 29 30 26 27 25 24 21 18 19 19 19 19 18 18 17 17 15 14 13 13 13 14 16 17 19 20 19 18 15 12 12 11 11 11 12 14 14 16 16 17
13 9 10 12 21 20 20 22 22 20 18 17 18 18 17 17 17 16 16 15 13 13 13 13 13 14 15 19 19 17 14 13 12 10 9 8 11 12 13 14 15 16 17
11 18 19 18 13 11 13 21 20 20 18 18 17 18 18 18 15 14 12 11 10 11 12 12 12 12 15 17 16 15 14 12 10 9 8 9 11 12 12 15 16 16 17
14 10 14 9 5 8 8 11 12 15 16 17 18 19 17 13 10 10 9 9 10 10 9 10 15 14 13 15 15 12 9 9 7 6 6 7 8 10 11 13 14 15 16
14 11 12 16 12 6 3 8 9 11 13 15 15 14 12 11 9 10 8 11 10 14 18 19 16 18 16 16 15 14 12 7 5 4 2 4 6 7 8 11 12 13 14
13 9 8 6 4 2 4 5 7 7 11 12 13 11 10 8 6 8 7 11 16 15 16 16 18 19 19 19 17 17 14 12 10 4 3 4 2 5 5 8 8 10 11
12 13 10 4 7 6 8 6 7 8 9 9 10 9 12 11 10 11 12 12 14 11 13 14 15 15 17 18 17 16 13 13 13 11 5 5 5 3 3 5 6 7 8
12 13 10 6 6 8 8 8 9 8 8 11 12 14 17 11 8 12 10 12 12 12 13 13 13 12 13 13 16 14 13 15 15 13 11 6 3 4 1 5 5 6 7
12 11 8 6 6 8 6 8 7 11 11 12 13 13 12 14 13 11 9 10 12 12 13 14 11 10 9 11 11 12 12 15 14 13 10 7 2 2 1 3 4 5 6
12 12 9 7 10 7 7 9 11 12 13 10 11 12 14 14 14 13 10 9 12 14 14 13 12 12 9 7 7 11 14 13 15 14 16 9 7 8 8 6 4 5 5
10 9 8 9 8 7 8 10 11 13 11 10 10 9 10 13 17 14 10 9 14 15 13 10 5 4 4 4 3 4 9 12 11 15 18 17 12 14 15 14 9 7 6
10 9 8 8 9 9 8 11 10 10 10 10 11 12 12 14 15 16 12 12 14 13 9 5 3 2 3 3 2 3 6 6 10 12 15 18 18 11 10 9 8 5 3
9 8 8 7 9 9 6 7 5 5 5 9 9 11 12 16 16 17 13 12 11 8 4 3 3 4 3 2 3 3 4 5 7 10 11 15 19 16 12 9 8 8 11
7 9 10 10 9 10 5 5 3 4 3 2 7 13 15 17 16 15 11 9 9 5 4 2 2 5 4 3 3 3 3 3 4 5 8 9 12 12 12 12 9 8 10
13 10 10 11 11 10 8 3 3 4 2 3 8 12 16 15 13 10 10 7 8 4 5 5 5 2 2 3 2 1 2 3 2 3 3 3 5 7 8 8 8 7 7
13 13 14 13 14 10 7 4 4 4 5 3 2 3 5 10 11 14 14 11 10 8 5 4 3 3 1 2 3 3 1 3 2 2 1 1 2 1 5 3 5 4 4
13 9 10 12 14 10 8 7 10 6 7 3 3 3 6 14 15 16 14 13 11 8 5 2 2 1 2 1 2 3 2 3 3 3 2 3 3 1 0 2 2 3 5
11 12 10 10 10 8 8 6 6 5 3 4 4 7 6 10 13 14 14 12 10 8 4 4 4 4 2 2 2 1 1 0 0 2 3 3 3 3 4 3 4 4 8
9 8 7 11 10 7 9 6 7 8 8 7 5 5 4 4 6 11 12 12 10 6 4 2 3 3 2 2 2 2 2 2 2 2 2 4 3 4 3 4 4 5 9
Wind_Direction
157 150 135 128 120 116 112 108 107 107 107 110 112 110 107 106 105 104 102 97 94 91 86 82 79 76 70 63 63 73 83 88 76 71 68 65 62 57 54 48 44 42 41
148 147 138 132 125 120 116 112 111 111 112 113 112 111 110 110 108 107 103 99 95 92 88 85 80 72 63 59 60 84 98 100 82 76 71 66 66 62 58 53 47 42 40
144 145 136 133 128 124 120 119 118 115 117 117 115 113 115 113 114 111 107 103 98 93 87 83 77 66 57 53 66 82 99 103 88 71 65 65 64 62 58 54 51 46 41
142 140 141 139 135 130 124 125 121 122 122 120 120 119 120 118 119 115 111 107 101 94 86 80 76 68 62 58 62 71 83 89 86 81 72 64 63 61 57 54 52 49 46
141 145 144 133 131 131 124 123 123 126 125 127 126 124 123 121 124 118 110 105 100 92 83 78 79 74 65 61 59 71 87 92 87 77 69 63 58 57 59 54 52 47 46
129 150 143 138 135 132 127 127 129 128 129 131 129 128 129 126 124 118 111 106 98 91 80 73 70 79 72 60 69 78 90 82 78 68 62 60 64 61 57 55 50 46 45
141 161 144 137 135 133 130 132 132 131 138 134 133 131 129 124 121 111 107 107 107 100 89 72 65 66 80 73 72 88 96 84 74 65 59 49 46 57 61 57 53 47 41
66 147 153 141 137 136 134 137 132 135 138 138 135 129 124 124 120 116 119 118 111 100 87 73 62 59 74 82 79 96 100 91 82 76 62 52 49 53 57 58 56 52 48
37 72 131 100 120 118 126 123 127 136 143 138 132 132 131 128 128 131 132 123 117 104 89 74 58 46 62 90 87 103 103 99 89 84 78 65 66 58 62 65 64 60 57
72 68 48 63 53 90 120 122 140 146 143 140 133 132 138 134 137 136 118 112 101 86 78 73 65 61 62 86 92 110 112 98 89 85 83 77 75 74 76 79 77 73 69
89 96 97 88 5 51 109 145 146 144 142 137 140 145 139 133 127 112 113 98 72 64 67 73 77 82 78 73 77 86 91 79 90 100 102 99 88 93 98 89 84 82 79
124 134 148 170 185 186 124 141 139 138 141 143 146 139 128 131 135 115 114 91 74 91 89 89 81 76 67 62 64 63 59 61 52 38 37 105 108 96 96 97 95 91 83
142 161 192 198 198 152 136 142 142 142 140 145 145 141 146 148 135 114 109 108 96 96 82 80 79 76 74 70 61 53 55 50 37 22 9 353 104 97 111 104 96 96 96
170 177 200 245 147 195 157 149 138 146 151 158 167 161 138 122 120 110 100 108 97 89 84 88 81 76 70 65 56 44 48 45 32 27 20 6 348 353 136 126 112 91 83
181 193 207 206 182 194 145 144 163 147 134 135 149 154 139 123 119 117 106 94 90 98 95 90 85 76 67 61 52 51 45 38 32 19 14 1 349 328 241 156 135 105 81
190 201 203 196 173 183 138 161 150 135 133 127 134 149 141 137 128 108 104 90 92 93 94 88 80 69 57 51 49 60 41 46 46 31 12 3 340 256 194 134 107 84 78
195 196 189 175 168 158 137 157 147 139 148 139 136 142 137 136 125 118 102 86 104 104 91 80 70 63 51 46 53 38 49 44 38 32 34 32 37 44 62 82 100 73 64
198 189 163 172 157 136 157 148 138 154 149 140 142 128 120 128 125 113 108 104 107 93 87 76 65 64 61 41 30 29 41 50 43 41 44 50 55 58 59 59 74 69 57
185 174 158 148 153 144 144 137 144 154 136 139 122 121 129 126 122 116 112 113 108 97 91 106 63 100 68 26 62 51 46 55 47 50 48 52 59 67 53 48 63 63 28
178 160 143 152 151 142 137 120 107 98 118 128 140 124 122 129 127 120 118 126 119 100 88 83 98 60 82 58 48 26 48 53 61 53 50 66 65 62 57 48 26 12 23
177 151 161 153 158 150 150 143 131 158 156 126 147 137 136 138 140 134 128 113 95 93 107 79 85 55 41 32 61 359 42 36 31 50 72 70 58 52 51 54 56 42 27
180 170 168 169 166 173 166 157 147 148 153 122 143 143 152 151 146 126 114 94 103 99 71 57 56 57 73 15 127 101 18 326 0 53 65 63 50 50 52 56 52 43 39
189 183 179 174 176 180 170 130 87 73 69 86 102 112 144 129 107 105 97 88 73 67 57 44 54 83 144 5 33 135 79 239 337 334 17 68 236 93 41 55 44 53 55
188 188 180 177 179 180 170 168 164 171 165 166 146 119 97 103 100 99 92 81 76 76 67 50 61 66 95 142 359 10 35 140 195 308 316 303 327 36 264 254 343 342 348
171 185 178 177 184 183 182 164 155 152 135 118 109 112 104 96 94 91 91 86 76 68 65 104 100 104 129 133 183 221 230 287 176 168 248 293 332 285 280 254 286 313 332
178 169 180 174 180 168 172 174 174 153 134 128 134 127 117 104 103 106 97 94 79 78 109 134 141 133 125 139 201 192 199 210 233 207 225 255 233 270 250 257 267 325 341